DOORY-SAT

导读 | 星芒AI

DOORY-SAT 是一颗由印度学生团队设计和制造的教育型立方星,旨在促进卫星技术和太空科学的教育与研究。该卫星由印度理工学院马德拉斯分校的学生开发,于2023年发射,主要用于测试通信系统、轨道控制和数据传输等关键技术。DOORY-SAT 项目展示了印度在航天教育和青年创新方面的潜力,为未来更复杂的卫星任务奠定了基础。

基本信息
目录编号:
58500
目录名称:
DOORY-SAT
国际标识:
2023-188A
轨道中心:
EARTH
卫星名称:
DOORY-SAT
卫星全名:
--
卫星状态:
在轨 (已飞行697 天)
发射日期:
2023-12-04 UTC
国别 :
韩国 (KR)
星等 :
--
轨道信息
数据来源 国际轨道数据 AOE轨道数据
星历时间 2025-10-31T07:05:22+0800
8小时前
查看轨道信息
2025-10-31T06:00:00+0800
9小时前
查看轨道信息
半长轴 7008.366km 7008.388km
偏心率 0.0008339 0.0008381
轨道倾角 46.983° 46.983°
近地点辐角 19.303° 19.561°
升交点赤经 336.427° 336.651°
平近点角 340.818° 98.505°
近地点 624.386km 624.379km
远地点 636.076km 636.127km
周期 97.316分钟 97.317分钟
每日圈数 14.797134 14.797067
详细信息
使用方式:
暂无
2D轨道图
3D轨道图
轨道高度分析图
轨道倾角分析图
轨道综合分析图
查看轨道综合分析图